Theta_e
325 324 321 321 319 319 321 323 320 323 324 324 328 327 329 329 331 325 330 330 326 317 326 326 315 311 313 322 331 319 311 314 322 329 331 331 329 323 322 325 329 319 326 327 317 316 317 316 317
325 324 321 320 319 321 321 316 323 321 323 325 327 328 327 331 331 330 331 329 326 317 327 323 314 312 312 315 320 316 320 311 312 321 329 324 320 319 320 319 327 329 325 330 319 317 315 315 316
325 323 321 315 316 321 321 316 322 322 324 324 326 326 325 329 330 329 330 328 324 317 326 322 316 313 313 313 314 314 316 313 311 311 316 317 315 313 313 315 329 318 326 327 321 316 316 316 315
324 319 319 316 318 318 317 315 319 324 321 323 326 327 326 327 329 328 328 327 323 318 323 324 318 315 315 314 314 315 314 321 322 317 312 311 311 311 311 315 319 318 315 315 315 315 315 316 315
321 317 319 318 317 316 314 315 322 320 320 324 326 326 329 326 330 328 328 327 323 318 321 325 320 317 317 316 315 315 315 323 326 326 324 327 318 315 313 313 313 314 313 314 314 315 316 316 316
316 317 321 323 320 315 315 317 322 319 319 323 324 327 328 330 329 329 328 326 324 319 319 324 322 319 318 317 317 316 316 316 316 318 326 328 321 317 316 313 313 314 314 314 314 316 316 316 315
313 314 318 319 319 317 319 318 318 317 318 322 325 325 328 331 330 329 328 327 325 320 319 321 323 322 319 319 318 317 317 316 316 315 315 317 319 317 318 314 314 315 315 314 315 316 316 316 315
315 313 314 314 318 319 316 318 319 320 318 320 324 324 325 329 330 330 329 327 325 322 319 320 321 322 321 320 319 318 318 317 316 316 315 317 318 317 317 316 316 316 316 315 315 316 316 316 316
316 314 314 315 314 317 315 317 316 318 320 323 325 321 321 328 330 331 331 330 327 323 320 319 320 320 323 321 320 320 319 318 318 317 316 316 316 316 316 316 316 317 316 316 315 315 316 316 316
314 313 313 313 312 313 313 316 316 316 319 321 322 322 322 326 330 331 331 330 327 325 323 320 319 320 321 323 321 321 320 320 319 319 318 318 317 316 316 317 316 317 317 316 316 316 316 316 317
312 312 311 314 314 313 314 313 315 315 315 320 320 321 321 326 329 331 331 329 327 326 325 322 320 320 320 322 323 322 321 321 321 320 319 319 319 318 316 316 317 317 317 317 317 316 316 317 317
313 313 313 313 313 313 314 314 314 315 318 318 319 320 320 324 325 327 331 330 328 328 326 324 322 321 321 320 322 323 322 322 322 322 321 321 320 320 318 317 316 317 317 317 317 317 317 318 318
313 313 313 313 312 312 313 313 313 314 317 317 318 318 319 321 323 326 326 331 330 329 328 328 324 323 322 322 321 322 323 323 323 323 322 322 322 322 320 318 317 316 317 317 317 317 318 318 319
314 313 312 312 312 312 312 312 312 315 316 316 317 317 319 320 320 323 325 326 329 329 330 331 329 328 326 324 323 323 322 323 323 323 323 323 323 323 323 321 319 318 317 317 317 317 317 318 319
314 314 313 313 311 311 313 312 311 315 315 316 316 317 319 320 322 319 318 322 325 327 329 328 329 330 329 327 325 324 324 323 323 323 323 323 323 323 323 323 322 320 319 318 317 318 318 318 318
313 313 320 313 310 311 313 314 313 314 315 315 317 319 320 321 320 320 319 320 323 325 325 327 328 327 326 325 327 326 326 326 325 325 324 323 323 324 324 324 323 323 321 320 319 318 318 318 318
309 313 313 315 310 309 311 313 312 313 314 314 316 318 320 321 321 320 318 319 321 322 324 326 329 328 328 327 325 324 327 328 328 327 327 326 326 326 326 326 326 325 323 322 321 320 319 318 318
311 311 311 314 313 309 309 311 311 311 312 314 314 317 319 320 318 317 317 318 320 322 324 326 328 329 330 330 330 327 325 324 324 324 325 326 326 325 326 325 324 325 326 324 322 323 322 321 320
312 311 310 310 311 310 309 308 310 310 308 310 313 315 317 318 318 319 319 319 319 321 322 321 327 328 330 331 331 330 328 325 323 325 325 326 325 324 325 324 324 323 323 323 323 322 323 323 322
308 310 310 308 308 308 308 308 308 307 309 310 312 314 316 317 317 318 319 320 320 319 319 320 319 323 326 329 330 329 327 326 326 324 324 325 326 325 325 324 324 323 323 322 322 323 322 322 322
307 307 308 310 308 307 307 308 308 308 308 310 312 313 313 313 315 317 317 318 319 318 318 317 318 319 320 324 328 330 330 329 328 328 325 324 324 325 325 324 324 323 323 323 322 321 321 322 323
308 306 308 308 308 309 306 309 307 307 306 305 311 312 314 315 315 314 314 315 317 317 318 318 318 318 318 320 323 326 325 325 324 323 325 326 325 324 325 324 324 323 322 323 322 322 322 322 320
308 305 306 307 307 305 305 305 305 305 305 305 306 311 314 315 317 317 315 315 314 316 316 315 314 315 316 319 320 321 324 324 325 326 327 328 328 326 324 325 324 323 323 322 321 321 321 322 323
303 304 304 301 303 307 305 306 306 306 307 307 308 311 313 315 315 315 315 314 314 313 314 314 313 312 312 312 317 320 321 323 324 326 328 328 329 328 327 324 324 324 322 322 321 320 321 322 323
305 307 308 308 307 309 303 304 308 307 305 305 308 310 311 311 311 311 312 312 313 313 313 313 312 312 312 312 313 315 317 321 323 326 328 329 329 327 326 325 325 324 322 323 323 321 322 321 323
306 307 309 309 308 307 302 306 307 305 306 307 308 309 309 309 310 311 311 311 312 311 311 311 311 312 312 312 313 314 316 318 321 324 327 329 330 330 326 324 324 322 324 322 322 321 320 319 323
305 307 306 305 293 304 304 303 303 304 305 304 306 306 310 310 310 310 311 311 311 311 311 310 310 311 312 312 311 312 314 316 319 323 325 326 327 327 324 325 325 324 323 321 320 318 319 319 321
306 306 308 305 305 306 304 304 306 306 305 303 304 306 308 310 310 310 310 310 311 310 310 310 311 311 311 311 311 312 314 316 318 319 318 320 324 325 325 323 322 323 321 319 319 319 320 318 321
306 306 305 307 306 307 304 305 301 305 303 303 302 305 309 309 309 310 310 310 310 310 310 311 311 311 311 312 312 313 313 313 312 311 311 314 317 323 323 323 323 318 320 318 319 318 321 319 317
306 307 308 309 306 303 304 306 302 301 302 303 304 307 308 309 308 310 310 310 310 310 310 310 310 310 310 310 310 310 311 310 310 310 310 309 309 310 315 320 317 322 319 318 318 319 317 317 317
Wind_Speed
7 8 7 3 4 4 2 3 0 4 4 5 14 5 5 4 3 1 15 17 16 14 15 12 9 12 15 15 11 10 13 14 15 14 11 11 10 9 9 12 11 11 16 17 15 15 16 16 16
6 7 4 2 4 3 2 2 5 4 5 13 12 8 3 2 3 8 21 18 16 15 15 13 10 12 13 12 12 11 12 13 12 13 13 11 9 9 7 7 14 17 16 15 16 16 17 16 15
6 5 2 4 3 3 3 4 5 6 13 7 6 3 4 4 5 23 17 20 18 15 14 13 10 12 12 11 11 11 11 12 12 10 11 9 7 7 6 11 16 13 15 15 14 14 15 15 15
2 1 5 4 2 2 4 3 5 13 2 7 6 4 5 6 14 18 21 20 18 16 14 13 11 11 11 11 9 11 11 12 13 12 10 10 8 8 10 13 13 13 14 13 13 13 14 15 15
1 2 3 3 3 2 3 3 17 5 6 6 8 4 4 7 17 18 22 21 18 17 15 13 12 11 11 11 10 10 12 13 12 11 13 11 12 11 11 11 12 12 12 13 13 13 14 15 15
2 3 3 2 4 2 4 7 16 5 6 8 5 9 5 12 18 21 21 20 17 15 16 14 12 10 10 10 10 10 10 11 11 11 11 9 7 9 9 9 10 11 11 12 12 12 13 14 14
5 3 4 4 3 4 3 12 10 9 8 6 6 5 5 18 18 21 21 19 17 15 15 14 13 11 10 9 9 8 8 9 9 9 8 6 6 7 7 8 8 9 10 10 11 11 12 12 13
5 5 4 3 3 5 4 11 7 12 6 6 9 4 4 21 20 23 21 20 18 17 15 15 14 12 10 9 8 8 7 7 7 7 7 6 6 6 6 6 6 7 8 9 9 9 10 11 12
7 4 2 4 5 5 7 6 7 7 8 9 10 4 5 23 22 26 24 24 22 20 18 16 15 13 11 10 9 8 7 6 5 5 5 5 5 4 4 4 4 4 5 6 7 7 8 9 9
4 4 8 5 4 2 3 7 13 7 6 7 11 11 7 23 26 29 28 28 27 24 21 19 17 15 13 11 10 8 7 5 4 4 3 3 3 3 3 3 2 3 3 4 5 5 6 6 7
6 5 5 3 5 3 1 4 9 10 3 16 22 19 14 24 28 30 29 28 27 24 23 21 19 16 15 13 11 9 8 6 5 3 2 2 2 2 2 2 2 1 1 1 2 3 3 4 5
1 5 6 2 3 1 2 2 7 15 11 5 18 17 18 23 29 31 31 29 28 25 22 21 20 18 16 15 13 11 9 7 6 5 4 2 1 1 1 1 1 2 2 1 0 1 1 1 2
2 3 6 4 3 3 5 8 7 14 16 6 13 18 21 23 26 29 28 28 27 25 23 21 21 19 18 17 15 14 12 11 9 8 7 5 4 3 2 2 2 3 3 3 3 3 3 2 2
4 8 3 2 3 1 2 2 3 6 19 11 12 16 22 23 24 26 29 30 29 25 23 21 21 20 19 18 17 16 15 14 13 11 10 9 8 7 5 4 4 4 5 6 5 6 6 5 5
5 2 4 3 1 1 2 2 8 14 14 14 15 17 20 23 24 24 24 28 26 23 21 22 21 20 19 20 19 19 17 17 16 14 13 12 12 11 9 8 6 6 7 7 8 8 9 8 8
4 3 1 4 6 3 6 6 12 13 14 20 17 18 20 23 23 21 20 23 23 22 23 21 20 19 18 18 20 20 18 19 18 17 17 15 14 14 13 12 11 10 10 9 9 10 10 10 11
4 3 6 4 6 3 3 6 2 11 14 18 20 19 20 22 24 23 21 22 23 23 22 23 23 22 20 18 17 18 20 20 19 18 18 17 16 17 16 15 13 13 13 12 12 12 12 11 12
6 4 4 5 3 3 1 8 6 7 14 17 16 18 21 24 26 22 22 23 23 24 24 24 24 24 24 22 21 19 19 20 23 22 21 19 19 18 17 15 15 16 15 15 15 16 16 15 14
5 4 5 3 4 3 7 9 13 12 11 13 19 19 23 26 25 24 24 24 24 26 27 27 29 28 28 30 28 27 26 23 21 22 23 23 21 19 18 17 17 17 18 17 18 19 19 18 17
3 3 4 3 1 3 4 10 10 7 12 19 21 23 26 27 27 26 27 28 28 27 28 29 29 31 30 31 31 30 26 26 24 21 23 25 24 23 21 21 20 19 19 18 19 20 20 19 20
4 5 4 5 2 2 3 7 9 9 16 25 26 25 23 24 30 29 29 31 31 31 31 31 30 31 31 32 32 32 31 32 30 29 26 25 26 25 25 24 22 21 22 22 21 20 21 21 23
7 6 4 4 2 4 1 6 5 8 11 7 27 30 33 31 31 31 29 30 32 34 33 32 31 32 32 32 34 35 34 34 30 27 24 22 21 24 27 24 22 22 22 23 23 23 23 23 22
7 6 6 3 2 2 1 3 7 3 5 9 21 35 35 36 37 37 34 31 32 32 32 30 32 35 35 35 35 34 35 34 31 28 25 23 22 20 21 20 21 22 23 22 22 24 24 25 27
10 7 6 4 2 4 7 7 5 6 9 8 20 32 40 44 42 40 37 34 34 33 33 34 34 32 33 34 35 35 34 34 33 31 30 26 23 18 16 16 18 18 17 18 18 19 23 24 27
5 7 1 1 1 6 1 2 10 7 10 8 14 25 29 27 28 31 33 33 34 36 36 39 37 34 31 31 32 32 32 33 33 32 31 29 26 22 18 18 19 19 17 20 20 20 22 21 24
9 8 5 7 4 4 1 7 6 9 20 21 23 22 16 14 12 16 21 23 23 27 31 36 37 34 31 30 31 30 29 29 30 31 30 28 27 24 22 21 22 20 20 17 19 19 21 21 21
5 7 8 6 2 3 5 7 9 12 15 9 23 19 29 20 18 17 17 19 20 21 22 24 28 29 29 29 28 29 28 27 28 28 26 26 26 23 23 23 21 22 21 19 20 19 19 20 22
9 12 5 1 3 4 5 5 7 6 9 7 11 17 17 20 20 19 14 13 12 14 15 19 22 23 23 24 23 23 24 26 25 25 25 24 21 20 23 22 23 19 19 18 18 17 16 20 12
4 7 2 5 5 5 1 6 9 9 5 6 9 9 12 14 16 15 11 9 10 11 12 13 14 15 15 16 18 19 21 23 24 25 24 24 22 21 23 22 22 20 18 16 16 14 14 12 13
2 7 11 8 5 2 3 8 5 8 5 3 11 4 6 7 11 13 12 12 10 9 9 10 12 13 14 14 15 15 18 20 20 19 19 20 20 21 23 20 19 19 15 15 15 8 10 8 6
Wind_Direction
314 327 332 349 55 64 113 194 57 120 154 166 149 157 185 134 160 191 153 155 156 149 140 135 117 118 118 116 111 95 103 125 135 126 121 121 120 111 99 97 100 79 87 88 81 75 68 63 62
300 325 331 72 86 79 262 251 181 181 153 136 129 125 135 127 145 152 150 155 154 151 141 134 122 122 120 117 104 91 95 99 112 119 113 116 117 110 114 100 93 90 90 89 79 72 67 64 66
298 327 350 86 107 158 179 214 172 137 136 152 132 147 144 152 160 152 157 156 153 155 145 139 129 126 119 121 106 96 98 97 97 105 112 110 106 103 109 100 93 90 89 87 81 73 66 65 69
274 16 58 82 203 228 185 200 163 145 153 160 155 124 139 152 153 156 160 160 156 158 151 146 136 129 121 121 113 98 99 93 88 92 96 106 104 101 92 100 104 94 87 87 80 72 67 66 66
207 77 64 70 273 262 248 190 166 153 149 162 163 169 154 178 163 161 163 163 162 161 158 152 144 138 130 123 118 102 105 99 102 92 86 90 90 82 75 85 90 89 82 78 76 74 71 67 65
102 90 84 188 251 246 261 195 167 166 151 158 160 151 148 161 165 163 167 164 165 167 163 160 154 147 140 129 124 111 109 105 106 107 104 108 91 85 77 80 90 87 78 75 75 74 70 64 62
114 87 180 171 250 303 235 170 172 164 157 193 155 132 158 167 165 168 169 170 168 175 174 170 164 158 151 140 131 122 112 105 102 104 106 105 97 89 90 83 89 84 73 71 73 75 71 67 65
126 94 124 222 210 258 181 167 187 170 185 171 175 178 177 178 171 171 173 176 177 181 186 182 176 173 166 155 147 139 130 124 116 113 111 110 108 97 90 89 89 81 74 69 69 71 70 68 69
130 73 171 219 163 240 166 177 170 182 160 171 188 182 167 183 177 176 179 183 186 187 192 193 188 185 180 174 167 161 153 144 125 114 111 110 106 102 92 88 97 85 70 69 72 74 70 71 71
116 131 210 204 210 197 213 209 171 166 162 199 197 201 194 184 185 184 189 190 190 192 194 198 196 196 193 191 186 182 174 166 152 135 124 113 102 106 111 86 103 88 71 64 70 73 77 81 76
161 180 197 222 230 251 221 229 190 158 207 213 213 203 195 186 193 194 198 201 198 197 200 201 201 202 205 203 201 198 194 195 187 182 165 139 112 112 136 118 115 152 130 71 68 66 74 68 73
167 213 165 175 167 296 226 219 205 205 213 253 229 223 203 193 199 203 204 205 202 203 205 207 207 208 210 212 211 212 212 215 219 213 214 200 176 145 163 174 179 198 207 242 267 18 22 44 49
208 218 185 220 259 262 259 243 224 234 224 228 202 216 217 207 207 210 211 210 208 206 206 210 213 215 218 218 219 220 222 221 224 228 228 228 224 220 220 218 227 236 234 233 241 262 271 281 306
227 192 168 202 242 215 222 323 187 252 224 221 204 216 219 218 216 213 213 212 210 209 210 210 213 219 225 228 226 228 231 231 231 233 237 237 236 237 238 244 249 248 250 251 254 259 266 272 276
116 112 347 215 239 153 164 306 236 226 209 208 210 215 220 220 217 222 222 216 210 211 214 215 219 223 227 232 233 235 235 236 239 241 242 243 244 245 248 248 252 257 254 255 257 261 263 266 272
109 64 73 226 182 215 145 264 273 231 214 217 214 219 217 220 225 225 221 220 215 213 215 215 217 222 229 234 238 237 237 241 239 242 243 246 248 251 251 252 252 255 257 260 261 263 267 270 272
45 169 203 289 207 160 172 238 273 214 220 226 220 220 222 224 226 226 224 221 219 220 220 222 225 228 234 239 242 242 240 240 240 239 241 243 248 246 251 249 254 258 260 263 268 272 274 271 272
167 195 206 201 201 116 80 266 257 233 226 232 232 223 226 229 231 226 224 225 224 224 227 230 233 236 239 242 245 246 244 244 244 242 242 246 245 248 252 254 262 268 271 270 277 277 274 276 276
156 149 192 225 226 172 211 234 263 234 230 231 237 233 229 232 234 231 232 229 229 229 229 231 233 236 236 239 239 240 243 244 245 243 241 244 246 247 250 254 255 262 266 269 267 270 276 279 282
149 177 237 298 120 156 273 259 247 210 235 238 232 231 236 238 239 235 234 234 233 234 234 234 235 237 239 241 243 247 253 255 256 256 248 246 247 251 251 252 258 261 266 266 273 275 277 278 281
163 165 191 212 20 229 316 269 234 240 229 243 244 245 242 245 248 244 240 237 237 235 236 238 239 240 241 242 243 245 249 251 251 249 247 247 247 247 249 254 256 261 262 267 270 270 275 281 278
176 203 167 181 101 234 91 279 272 234 234 215 236 239 243 243 247 247 244 240 240 239 239 240 242 242 243 241 241 243 246 249 252 255 256 256 256 250 246 249 253 257 266 269 273 275 276 278 282
208 148 150 121 149 359 313 298 278 6 262 250 241 237 238 243 242 246 248 247 244 242 241 243 244 242 243 241 241 242 245 249 253 254 254 252 254 252 245 250 255 259 263 269 272 275 276 275 275
146 84 55 56 81 266 205 194 246 203 215 224 234 239 237 238 245 248 246 244 243 241 239 240 239 242 243 242 239 241 244 246 249 251 252 253 254 255 246 249 255 259 266 268 268 272 275 277 276
107 113 41 307 234 232 352 237 257 263 244 219 242 252 249 246 250 252 251 247 243 239 237 237 236 239 241 237 236 238 241 244 248 251 253 255 256 257 258 257 257 261 260 272 265 266 276 273 277
168 153 159 196 205 252 22 239 242 237 270 264 255 250 253 232 244 258 246 236 234 233 232 235 233 234 235 235 236 237 239 242 246 249 251 255 256 255 251 250 255 261 254 261 265 273 278 277 278
187 192 163 110 55 36 229 289 290 268 270 266 263 260 249 245 255 271 254 231 222 223 230 227 226 230 233 236 239 238 238 240 244 247 251 250 250 243 245 249 252 252 252 260 264 267 269 277 275
175 148 138 111 175 255 274 274 234 281 263 314 270 260 268 251 242 241 245 229 214 210 215 217 223 228 232 233 236 237 238 241 244 247 249 248 243 235 232 238 243 248 243 262 258 267 269 280 272
137 181 128 133 170 182 251 258 217 227 270 280 289 270 247 247 224 219 224 221 210 206 209 210 214 218 221 224 225 231 238 246 248 249 246 242 237 230 228 232 237 238 241 255 264 260 267 274 284
204 177 176 188 208 241 131 253 225 218 224 238 270 295 219 227 214 212 219 223 221 220 225 223 223 224 228 231 235 237 239 239 239 241 240 237 235 229 229 221 228 229 236 250 260 239 261 256 269